Regional Weather Roundup
Issued by NWS

Home | Current Version | Previous Version | Graphics & Text | Print | Product List | Glossary On
Versions: 1 2 3 4 5 6 7 8 9 10 11 12 13 14 15 16 17 18 19 20 21 22 23 24 25 26 27 28
000
ASUS45 KCYS 220810
RWRWY

WYOMING REGIONAL WEATHER ROUNDUP
NATIONAL WEATHER SERVICE CHEYENNE WY
100 AM MST WED NOV 22 2017

NOTE:  "FAIR" INDICATES FEW OR NO CLOUDS BELOW 12,000 FEET
WITH NO SIGNIFICANT WEATHER AND/OR OBSTRUCTIONS TO VISIBILITY.

WYZ001-220900-
YELLOWSTONE NATIONAL PARK

CITY           SKY/WX    TMP DP  RH WIND       PRES   REMARKS
LK YELLOWSTONE   N/A     36  36 100 CALM      30.38S
W YELLOWSTONE  NOT AVBL

$$
WYZ002>013-054>058-071-098>099-220900-
NORTHERN WYOMING

CITY           SKY/WX    TMP DP  RH WIND       PRES   REMARKS
JACKSON        LGT RAIN  41  39  93 E3        30.36S
CODY           FAIR      53  37  54 W12G24    30.14F
GREYBULL       FAIR      35  30  82 E8        30.17F WCI  29
WORLAND        FAIR      29  28  96 SW8       30.17F WCI  21
SHERIDAN       FAIR      31  29  92 N5        30.05F WCI  26
BUFFALO        FAIR      46  13  26 S6        30.09F
GILLETTE       FAIR      45  26  47 SW13      30.08F
HULETT         FAIR      41  27  56 SW10      30.09F
NEWCASTLE      FAIR      30  27  86 CALM      30.15F

$$
WYZ014>020-022>026-101>103-220900-
CENTRAL WYOMING

CITY           SKY/WX    TMP DP  RH WIND       PRES   REMARKS
BIG PINEY      LGT RAIN  35  33  92 E3        30.40S
PINEDALE       CLOUDY    34  32  93 E3        30.41R
DUBOIS         CLOUDY    41  34  75 NW9       30.28R
LANDER         FAIR      37  29  72 N5        30.20F WCI  33
RIVERTON       FAIR      42  30  62 W5        30.23R
CASPER         MOCLDY    46  31  55 SW16      30.19F
DOUGLAS        MOCLDY    32  30  92 S5        30.17F WCI  27

$$
WYZ021-027>030-104>119-220900-
SOUTHERN WYOMING

CITY           SKY/WX    TMP DP  RH WIND       PRES   REMARKS
EVANSTON       CLOUDY    41  36  82 SW9       30.45R
KEMMERER       CLOUDY    37  34  87 SW5       30.43F WCI  34
FORT BRIDGER   CLOUDY    44  36  73 W12G18    30.46R
ROCK SPRINGS   CLOUDY    43  35  73 SW12      30.41F
DIXON          CLOUDY    34  32  91 CALM      30.44S
RAWLINS        CLOUDY    42  34  73 SW24G31   30.35S
SARATOGA       CLOUDY    41  34  75 S8        30.38F
LARAMIE        MOCLDY    39  30  70 W12       30.30S WCI  32
CHEYENNE       FAIR      42  33  70 W7        30.23S
TORRINGTON     FAIR      32  27  81 NW3       30.18F
PINE BLUFFS    FAIR      32  32 100 MISG      30.23F

$$




USA.gov is the U.S. government's official web portal to all federal, state and local government web resources and services.